Simultaneous Nadir Overpasses (SNOs) Predictions

Prediction of SNOs between NOAA-20 and AQUA Satellite Orbit:

Table of predicted SNOs for the next 14.0 days since TLE Epoch: 3/29/2025
Index Date (NOAA-20) Time (NOAA-20) Lat,Lon (NOAA-20) SZA (NOAA-20 ) Date (AQUA) Time (AQUA) Lat,Lon (AQUA) SZA (AQUA ) Distance(km) Time Diff (sec)
1 03/30/2025 18:32:07 -81.31, 13.88 97.14 03/30/2025 18:32:50 -81.31, 13.91 97.17 0.86 43
2 03/30/2025 19:22:52 81.31,-178.80 82.85 03/30/2025 19:22:09 81.30,-178.74 82.86 1.33 43
3 04/02/2025 04:53:42 81.31, 38.77 81.87 04/02/2025 04:53:43 81.32, 38.78 81.87 0.97 1
4 04/04/2025 14:24:33 81.31,-104.13 80.96 04/04/2025 14:25:16 81.32,-104.06 80.93 1.39 43
5 04/04/2025 15:15:17 -81.31, 63.55 99.11 04/04/2025 15:14:35 -81.31, 63.57 99.08 0.82 42
6 04/07/2025 00:46:08 -81.31, -79.39 100.00 04/07/2025 00:46:06 -81.31, -79.24 100.01 2.71 2
7 04/09/2025 10:16:58 -81.31, 137.97 100.92 04/09/2025 10:17:35 -81.32, 137.99 100.94 0.94 37
8 04/09/2025 11:07:42 81.31, -54.47 79.04 04/09/2025 11:06:53 81.31, -54.36 79.06 2.10 49
9 04/11/2025 19:47:53 -81.31, -6.70 101.53 04/11/2025 19:49:07 -81.23, -6.68 101.61 9.02 74



Historial Predications of SNOs between NOAA-20 and AQUA
